Regional Weather Roundup
Issued by NWS

Home | Current Version | Previous Version | Text Only | Print | Product List | Glossary On
Versions: 1 2 3 4 5 6 7 8 9 10 11 12 13 14 15 16 17 18 19 20 21 22 23 24 25 26 27 28 29 30 31 32 33 34 35 36 37 38 39 40 41 42 43 44 45 46 47
000
ASUS45 KBOI 031010
RWRID

IDAHO REGIONAL WEATHER ROUNDUP
NATIONAL WEATHER SERVICE BOISE ID
400 AM MDT THU SEP 03 2015

NOTE: "FAIR" INDICATES FEW OR NO CLOUDS BELOW 12000 FEET
WITH NO SIGNIFICANT WEATHER AND/OR OBSTRUCTIONS TO VISIBILITY

IDZ012-014-031100-
SOUTHWEST IDAHO


CITY           SKY/WX    TMP DP  RH WIND       PRES   REMARKS
BOISE          FAIR      59  43  55 NW10      29.84R
CALDWELL       FAIR      59  36  41 W15       29.86R
MOUNTAIN HOME  MOCLDY    62  42  47 NW22      29.82R
$$

IDZ016-017-031100-
SOUTHCENTRAL IDAHO


CITY           SKY/WX    TMP DP  RH WIND       PRES   REMARKS
BURLEY         FAIR      62  38  40 W7        29.83R
JEROME         FAIR      59  39  47 SW10      29.85R
TWIN FALLS     FAIR      59  34  39 VRB5      29.87R
$$

IDZ019>023-031100-
SOUTHEAST IDAHO


CITY           SKY/WX    TMP DP  RH WIND       PRES   REMARKS
IDAHO FALLS    PTCLDY    71  40  32 S9        29.81S
POCATELLO      CLEAR     68  38  33 SW16      29.83R
REXBURG        PTCLDY    67  41  38 S9        29.82S
$$

IDZ006-010-011-018-031-032-031100-
CENTRAL IDAHO MOUNTAINS


CITY           SKY/WX    TMP DP  RH WIND       PRES   REMARKS
MCCALL         MOCLDY    49  43  80 NW7       29.89R
HAILEY         FAIR      55  34  44 NW6       29.89R
STANLEY          N/A     46  31  55 CALM      29.92R
SALMON         FAIR      54  39  58 NE3       29.80R
CHALLIS        FAIR      53  31  42 CALM      29.81S
$$

IDZ002-004-006-007-026-031100-
NORTHERN IDAHO


CITY           SKY/WX    TMP DP  RH WIND       PRES   REMARKS
LEWISTON       CLOUDY    59  47  64 SE3       29.88R
LOWELL           N/A     56  54  93 CALM      29.92R
COEUR D`ALENE  FAIR      54  46  76 S8        29.87S
MULLAN PASS    FAIR      41  35  79 W5        29.95R
$$



USA.gov is the U.S. government's official web portal to all federal, state and local government web resources and services.